Location: Poughquag
(41.6090°N, 73.6820°W)
Time: 03:25:09
(UTC-04:00)

Vanguard 1 Rocket - All Passes

Search period start: 15 October 2019 00:00
Search period end: 25 October 2019 00:00
Orbit: 650 x 4226 km, 34.3° (Epoch: 13 October)

Date Brightness Start Highest point End Pass type
(mag) Time Alt. Az. Time Alt. Az. Time Alt. Az.
15 Oct - 09:58:20 10° S 10:10:00 29° SE 10:27:28 10° E daylight
15 Oct - 12:20:13 10° SW 12:37:24 60° SSE 13:02:44 10° E daylight
15 Oct - 14:46:53 10° W 15:09:21 72° S 15:34:24 10° ESE daylight
15 Oct - 17:16:58 10° W 17:41:42 57° SSW 18:02:05 10° SE daylight
15 Oct - 19:51:34 10° W 20:09:56 27° SW 20:23:51 10° S visible
16 Oct - 08:51:31 10° SSE 08:58:48 16° ESE 09:08:15 10° E daylight
16 Oct - 11:09:33 10° SW 11:23:57 48° SE 11:46:55 10° E daylight
16 Oct - 13:34:22 10° WSW 13:54:05 70° S 14:20:11 10° E daylight
16 Oct - 16:02:49 10° W 16:26:52 66° SSW 16:49:59 10° ESE daylight
16 Oct - 18:34:46 10° W 18:57:14 40° SW 19:14:43 10° SSE visible
16 Oct - 21:21:45 10° WSW 21:23:00 10° WSW 21:24:15 10° WSW visible
17 Oct - 09:59:56 10° SSW 10:11:39 34° SE 10:30:18 10° E daylight
17 Oct - 12:22:41 10° WSW 12:39:29 64° SSE 13:05:05 10° E daylight
17 Oct - 14:49:31 10° W 15:11:34 71° S 15:36:47 10° ESE daylight
17 Oct - 17:19:32 10° W 17:43:30 52° SSW 18:04:03 10° SE daylight
17 Oct - 19:55:17 10° W 20:11:18 22° SW 20:24:17 10° SSW visible
18 Oct - 08:51:55 10° SSE 09:00:21 20° SE 09:12:24 10° E daylight
18 Oct - 11:11:50 10° SW 11:25:54 53° SSE 11:49:17 10° E daylight
18 Oct - 13:37:01 10° WSW 13:56:20 71° S 14:22:33 10° E daylight
18 Oct - 16:05:25 10° W 16:28:53 62° SSW 16:52:08 10° SE daylight
18 Oct - 18:37:40 10° W 18:58:45 34° SW 19:16:00 10° SSE visible
19 Oct - 10:01:53 10° SSW 10:13:26 40° SE 10:32:53 10° E daylight
19 Oct - 12:25:17 10° WSW 12:41:42 67° SSE 13:07:25 10° E daylight
19 Oct - 14:52:11 10° W 15:13:45 68° SSW 15:39:03 10° ESE daylight
19 Oct - 17:22:13 10° W 17:45:13 46° SW 18:05:45 10° SSE daylight
19 Oct - 20:00:00 10° W 20:12:39 17° WSW 20:23:36 10° SSW visible
20 Oct - 08:53:08 10° S 09:02:02 25° SE 09:15:45 10° E daylight
20 Oct - 11:14:17 10° SW 11:28:00 58° SSE 11:51:36 10° E daylight
20 Oct - 13:39:44 10° W 13:58:37 71° S 14:24:52 10° ESE daylight
20 Oct - 16:08:05 10° W 16:30:50 57° SSW 16:54:06 10° SE daylight
20 Oct - 18:40:56 10° W 19:00:12 28° SW 19:16:48 10° S visible
21 Oct - 07:47:34 10° SE 07:51:24 12° ESE 07:55:57 10° ESE daylight
21 Oct - 10:04:05 10° SSW 10:15:23 45° SE 10:35:19 10° E daylight
21 Oct - 12:27:59 10° WSW 12:44:00 69° S 13:09:42 10° E daylight
21 Oct - 14:54:54 10° W 15:15:54 65° SSW 15:41:11 10° ESE daylight
21 Oct - 17:25:04 10° W 17:46:51 40° SW 18:07:08 10° SSE daylight
21 Oct - 20:07:26 10° WSW 20:14:00 12° WSW 20:20:11 10° SW visible
22 Oct - 08:54:52 10° SSW 09:03:51 30° SE 09:18:40 10° E daylight
22 Oct - 11:16:54 10° WSW 11:30:15 62° SSE 11:53:52 10° E daylight
22 Oct - 13:42:30 10° W 14:00:55 69° S 14:27:05 10° ESE daylight
22 Oct - 16:10:49 10° W 16:32:42 51° SSW 16:55:49 10° SE daylight
22 Oct - 18:44:45 10° W 19:01:38 23° SW 19:16:53 10° S visible
23 Oct - 07:47:26 10° SSE 07:53:08 16° SE 08:00:53 10° E daylight
23 Oct - 10:06:31 10° SW 10:17:31 50° SSE 10:37:40 10° E daylight
23 Oct - 12:30:45 10° WSW 12:46:23 70° S 13:11:57 10° E daylight
23 Oct - 14:57:39 10° W 15:18:00 60° SSW 15:43:07 10° SE daylight
23 Oct - 17:28:09 10° W 17:48:27 34° SW 18:08:05 10° SSE daylight
24 Oct - 08:56:56 10° SSW 09:05:50 36° SE 09:21:19 10° E daylight
24 Oct - 11:19:37 10° WSW 11:32:37 65° SSE 11:56:07 10° E daylight
24 Oct - 13:45:18 10° W 14:03:13 67° SSW 14:29:10 10° ESE daylight
24 Oct - 16:13:41 10° W 16:34:31 45° SW 16:57:13 10° SSE daylight
24 Oct - 18:49:36 10° W 19:03:05 17° SW 19:15:49 10° SSW visible
